Powrót do katalogu

ORBCOMM FM 112

AktywnyŁącznośćLEO
NORAD 41184·PAYLOAD·🇺🇸 United States

Wystrzelony Dec 22, 2015 z Cape Canaveral Space Force Station

Loading…

Następne Przeloty (najbliższe 24 godziny)

TLE

ŚwieżeSource: Space-Track

Epoka: Sep 14, 2026, 05:44 UTC

1 41184U 15081F   26257.23894963  .00000416  00000-0  12407-3 0  9997
2 41184  46.9980 209.1163 0003578 266.9300  93.1176 14.58956339571954

Śledź ORBCOMM FM 112 w czasie rzeczywistym z AllMySat

Download on the App Store